This is the latest recevied weather packets stored in our database for station/object K5FEP. If no packets are shown the sender has not sent any weather packets the latest 10 day(s).
| Time | Temp. | Humidity | Pressure | Rain* | Wind** | Luminosity | Snow |
|---|---|---|---|---|---|---|---|
| 1787830310 | 22.22° C | 89% | 1015.6 hPa | 0 mm | - | 48 W/m² | - |
| 1787830010 | 21.67° C | 89% | 1015.7 hPa | 0 mm | - | 37 W/m² | - |
| 1787829704 | 21.67° C | 89% | 1015.7 hPa | 0 mm | - | 27 W/m² | - |
| 1787829399 | 21.67° C | 90% | 1015.8 hPa | 0 mm | - | 23 W/m² | - |
| 1787829095 | 21.67° C | 90% | 1015.5 hPa | 0 mm | - | 20 W/m² | - |
| 1787828790 | 21.67° C | 90% | 1015.5 hPa | 0 mm | - | 19 W/m² | - |
| 1787828487 | 21.67° C | 91% | 1015.5 hPa | 0 mm | - | 15 W/m² | - |
| 1787828186 | 21.11° C | 91% | 1015.2 hPa | 0 mm | - | 11 W/m² | - |
| 1787827885 | 21.11° C | 91% | 1015.4 hPa | 0 mm | - | 7 W/m² | - |
| 1787827581 | 21.11° C | 91% | 1015.4 hPa | 0 mm | - | 4 W/m² | - |
| 1787827281 | 21.11° C | 91% | 1015.6 hPa | 0 mm | - | 2 W/m² | - |
| 1787826979 | 21.11° C | 90% | 1015.5 hPa | 0 mm | - | 1 W/m² | - |
| 1787826679 | 21.11° C | 90% | 1015.3 hPa | 0 mm | - | 0 W/m² | - |
| 1787826375 | 21.11° C | 90% | 1015.5 hPa | 0 mm | - | 0 W/m² | - |
| 1787826072 | 21.11° C | 90% | 1015.6 hPa | 0 mm | - | 0 W/m² | - |
| 1787825770 | 21.11° C | 90% | 1015.5 hPa | 0 mm | - | 0 W/m² | - |
| 1787825468 | 21.11° C | 89% | 1015.3 hPa | 0 mm | - | 0 W/m² | - |
| 1787825163 | 21.11° C | 89% | 1015.4 hPa | 0 mm | - | 0 W/m² | - |
| 1787824860 | 21.11° C | 89% | 1015.4 hPa | 0 mm | - | 0 W/m² | - |
| 1787824560 | 21.11° C | 89% | 1015.5 hPa | 0 mm | - | 0 W/m² | - |
| 1787824254 | 21.11° C | 89% | 1015.5 hPa | 0 mm | - | 0 W/m² | - |
| 1787823951 | 21.11° C | 89% | 1015.7 hPa | 0 mm | - | 0 W/m² | - |
| 1787823646 | 21.11° C | 88% | 1015.5 hPa | 0 mm | - | 0 W/m² | - |
| 1787823346 | 21.67° C | 88% | 1015.4 hPa | 0 mm | - | 0 W/m² | - |
| 1787823046 | 21.67° C | 88% | 1015.4 hPa | 0 mm | - | 0 W/m² | - |
* Rain latest hour (hover to see other rain measurements)
** Current wind speed in m/s (hover to see current wind gust speed)